Theta_e
334 334 334 336 336 334 328 327 298 301 305 296 296 298 297 302 305 303 303 305 303 309 313 315 316 316 314 315 315 319 319 315 316 307 304 317 334 343 346 350 351 352 352 354 356 358 360 360 360 359 359 359 358 356 354 355 355 354 354 354 354 354 353 353 353 353 353 353 353 353 352 352 351 352 352 353 353 353 353 353 353 352 352 352 351 351 350 350 350 350 349 349 349 349 350 349 349
320 317 332 333 331 325 314 315 298 295 295 293 296 299 299 305 304 303 303 304 305 309 314 316 316 318 319 319 322 322 320 325 321 321 329 332 343 343 349 351 350 349 351 354 356 357 359 360 360 360 359 358 359 358 354 355 355 355 355 354 354 354 354 353 353 353 353 353 353 353 352 352 352 352 353 353 353 353 353 353 353 353 352 352 351 352 351 351 351 350 349 349 349 349 349 349 349
318 317 323 331 328 323 317 307 297 291 291 288 291 297 303 302 303 305 306 306 307 312 315 315 316 317 317 320 317 316 311 326 328 331 332 339 337 342 349 350 350 351 351 354 355 356 358 359 360 359 359 358 359 357 354 354 355 355 354 354 354 354 353 353 353 353 353 352 352 353 353 353 353 353 352 353 353 353 353 353 353 353 352 352 352 352 352 351 351 350 349 349 349 350 350 349 348
320 319 321 323 314 319 305 299 294 293 291 289 291 298 300 301 303 305 307 308 309 312 315 314 311 317 318 316 318 322 322 323 329 328 327 331 337 346 348 349 351 351 351 353 354 355 356 359 360 359 359 359 359 358 355 354 355 355 354 354 354 354 353 353 354 353 353 352 353 353 353 353 353 353 352 353 352 352 353 353 353 353 353 352 352 351 352 352 351 350 349 349 349 350 349 348 348
310 321 324 321 312 306 303 297 293 292 289 291 291 296 301 304 305 307 308 310 309 310 313 315 313 318 319 319 321 318 317 326 327 333 333 341 348 347 348 349 349 349 350 352 354 354 355 359 359 359 359 359 359 358 356 354 354 355 355 355 354 354 353 353 353 353 353 352 353 353 353 353 353 353 354 353 352 352 352 353 352 352 352 351 351 351 351 351 352 351 349 349 350 350 349 348 348
312 310 318 318 309 311 305 298 295 292 295 296 295 297 302 304 305 307 308 310 310 313 315 314 312 319 315 320 321 318 325 323 329 338 340 342 347 349 348 349 347 347 349 351 353 353 355 360 359 359 358 358 359 359 356 354 355 355 355 354 354 354 354 354 353 353 352 353 352 353 353 352 352 353 353 353 352 352 352 352 353 351 351 351 351 351 351 351 351 351 350 350 350 349 349 349 348
308 306 310 311 308 310 296 294 295 295 298 300 298 300 303 304 306 306 307 307 310 312 316 313 317 317 314 323 322 324 330 333 337 335 345 346 348 348 348 346 345 345 348 350 352 354 356 359 358 358 358 358 359 358 357 355 354 355 355 354 354 354 354 354 353 353 353 352 353 352 353 353 353 353 353 353 352 351 351 351 351 352 352 351 351 351 351 351 351 351 352 351 351 350 349 349 348
314 303 304 300 298 300 294 294 294 296 298 304 304 304 305 306 307 306 306 305 305 307 313 316 317 316 314 322 316 325 334 336 335 342 348 348 347 346 346 344 343 344 347 349 351 354 359 358 358 358 358 358 358 358 356 355 355 355 355 354 354 354 354 354 353 353 353 352 352 353 353 353 353 353 352 353 352 351 351 351 351 352 352 352 351 351 351 351 350 351 352 352 350 350 349 349 349
305 305 306 298 294 297 294 293 294 299 299 302 304 307 316 310 309 307 306 307 306 309 312 314 317 312 312 319 318 325 332 338 339 348 348 347 346 345 344 343 342 344 347 348 352 355 357 359 358 357 358 358 358 358 357 355 355 355 355 354 354 354 353 354 354 353 353 353 353 353 352 353 353 352 352 352 352 351 351 351 351 351 351 351 351 350 350 350 350 351 351 351 350 350 350 349 349
303 304 296 296 294 292 292 292 293 295 299 303 304 305 306 307 307 308 306 305 306 308 311 314 314 312 318 316 321 329 329 335 336 338 343 346 346 345 343 343 344 345 346 348 352 354 356 359 358 358 357 358 358 357 357 356 355 355 355 354 354 353 354 353 353 353 353 353 353 353 353 353 353 353 353 352 352 352 352 352 352 352 352 351 351 351 350 351 351 351 351 350 350 350 350 349 349
298 302 301 297 292 289 290 289 293 296 299 302 303 306 307 308 307 306 307 307 308 306 309 313 316 317 320 320 320 332 334 340 336 334 341 344 345 343 342 344 346 347 345 348 352 354 355 356 359 358 358 357 357 356 356 355 354 354 354 354 354 353 353 353 353 353 353 353 353 353 353 354 353 353 352 352 352 351 351 351 351 352 351 351 351 350 351 351 351 351 351 350 350 350 349 349 349
296 296 297 291 290 290 289 291 293 295 298 299 300 305 307 305 305 304 305 304 306 307 306 311 311 321 317 318 320 329 334 336 335 339 343 343 341 342 345 347 347 347 348 349 351 352 354 355 356 358 358 358 357 356 355 355 354 353 353 354 353 353 353 353 353 353 353 353 353 353 353 354 353 352 352 352 352 351 351 351 352 351 351 351 351 350 351 351 351 351 350 350 349 350 349 349 349
296 298 294 292 288 291 292 292 292 297 296 297 300 303 305 303 302 302 303 304 306 307 307 314 315 319 314 318 324 331 331 336 338 338 338 340 341 345 348 348 348 348 348 349 350 351 353 353 354 355 356 358 357 356 355 355 354 353 353 353 353 353 353 353 353 353 353 353 353 353 353 353 353 352 352 352 351 351 351 351 351 351 351 351 350 350 351 350 350 350 350 350 349 349 349 349 349
296 295 294 290 290 291 291 290 292 291 292 298 302 304 305 302 302 304 304 302 305 306 313 320 321 321 317 321 322 324 329 337 340 338 339 340 342 346 348 348 347 347 347 347 349 350 351 353 354 354 355 354 355 356 356 355 354 353 353 352 353 353 353 352 353 352 353 353 353 353 353 352 352 352 351 351 350 351 351 350 350 351 350 350 350 350 350 350 350 350 350 350 350 350 349 349 349
297 297 294 291 289 290 290 289 290 290 290 296 301 300 301 303 303 303 302 301 305 313 316 322 323 320 312 318 317 324 330 338 338 339 338 339 342 345 346 346 346 346 346 347 348 349 350 351 352 353 354 355 354 353 353 354 355 353 353 352 352 352 353 352 352 352 352 352 352 352 352 352 352 351 351 351 350 350 350 350 350 351 351 350 350 350 350 350 349 350 350 349 349 349 349 349 349
297 297 295 292 287 288 288 290 292 290 291 297 300 299 298 300 302 301 302 303 309 314 314 311 320 314 320 321 322 329 332 338 337 338 335 338 340 344 345 344 344 344 344 345 346 347 349 349 350 352 353 353 353 353 353 352 355 354 353 352 352 352 353 353 352 352 352 352 352 352 351 351 350 349 351 348 349 350 350 348 349 350 350 350 350 349 349 349 349 349 349 349 349 349 349 348 348
298 296 289 288 285 288 288 290 291 287 292 295 299 297 295 297 301 302 305 306 309 310 310 315 316 322 322 324 328 332 335 338 339 334 335 336 337 337 337 339 341 341 343 343 343 344 346 348 349 349 351 351 352 352 352 351 353 354 353 353 352 352 353 353 352 353 352 352 351 351 350 347 346 347 347 347 349 347 349 349 349 349 349 349 350 350 349 348 349 349 349 349 349 349 348 348 348
295 290 287 285 285 287 290 291 292 294 294 296 297 296 296 295 298 301 304 302 306 308 308 312 319 321 321 323 330 332 334 335 335 332 333 333 334 333 334 336 337 336 338 340 341 343 344 345 345 346 347 349 350 351 352 352 352 353 350 350 350 350 352 352 351 350 352 348 350 349 345 347 345 346 345 349 347 347 347 349 348 348 349 349 349 349 348 348 348 348 348 349 349 348 348 343 345
292 288 288 285 286 290 294 296 297 295 294 295 296 296 296 295 297 301 297 297 301 299 304 314 312 319 321 325 329 330 331 334 333 331 331 330 331 330 331 333 334 334 335 338 339 341 342 344 345 345 346 347 347 348 350 351 350 350 350 349 349 350 350 350 349 349 346 347 347 346 345 344 345 345 344 347 347 348 346 348 348 348 348 349 349 348 348 348 347 348 348 348 348 348 345 338 339
292 290 285 287 290 292 294 296 297 296 296 294 294 295 296 296 298 301 296 294 298 296 297 310 317 318 322 325 328 328 328 330 334 331 331 332 332 331 331 332 333 334 335 336 337 339 340 341 342 343 345 346 346 346 348 348 348 348 348 348 347 347 347 347 346 346 346 344 346 342 342 342 344 343 348 349 349 346 345 346 348 348 348 348 348 347 348 348 347 348 347 347 347 345 337 337 338
291 290 287 289 291 291 294 294 295 295 295 295 293 294 294 296 298 298 295 295 294 296 300 307 317 319 321 324 326 328 325 325 325 329 330 331 331 331 331 333 333 334 335 336 337 336 337 338 339 341 343 344 344 344 345 346 346 347 347 347 346 347 346 345 345 344 344 343 343 342 343 343 343 342 343 343 343 342 340 339 343 342 342 341 347 340 341 343 344 341 341 344 338 340 338 338 339
293 290 293 293 293 292 294 295 295 296 297 294 293 293 294 297 297 296 295 293 291 296 299 304 321 320 322 323 325 326 324 324 323 327 329 329 330 330 331 331 333 334 336 334 334 336 337 338 339 339 341 341 343 343 344 346 346 345 345 346 346 346 346 345 344 343 343 343 343 344 344 342 341 342 342 338 340 339 340 336 339 338 337 339 343 338 336 339 338 338 340 340 342 341 339 339 339
289 289 291 293 293 293 294 296 296 295 295 295 293 295 295 295 294 296 297 295 296 300 301 306 315 323 324 325 326 326 327 325 325 330 330 329 330 330 330 330 331 332 334 334 334 335 337 338 338 338 339 339 340 342 344 345 344 343 344 343 343 343 344 343 343 342 342 342 342 343 342 340 339 339 340 338 338 339 339 337 338 337 338 338 339 338 336 337 337 337 339 342 342 341 340 339 339
292 289 292 293 294 293 294 294 293 293 294 294 295 296 294 293 291 296 295 296 297 299 301 303 311 323 324 320 322 324 326 327 327 329 331 330 330 330 331 330 330 332 331 332 333 335 337 336 337 337 337 339 338 342 342 343 343 340 341 343 342 343 342 342 341 341 341 340 340 341 342 340 338 337 339 338 337 337 339 338 337 337 338 338 338 337 336 335 336 336 337 339 340 339 338 337 338
291 290 292 293 295 294 293 292 292 293 293 293 294 294 293 293 293 295 294 297 297 300 300 302 303 307 317 318 320 323 325 326 324 325 329 330 330 332 330 329 329 329 329 330 332 334 336 337 337 336 338 339 338 341 340 341 341 340 341 341 340 343 341 341 340 340 339 339 339 340 341 339 338 337 338 338 337 337 338 338 336 337 337 337 336 336 336 335 335 335 334 336 336 335 334 334 335
292 292 293 293 293 293 292 293 292 292 294 295 294 292 292 293 295 293 295 296 298 300 302 300 301 302 306 318 321 319 319 321 323 324 326 329 330 329 328 329 329 328 330 331 332 334 336 337 337 336 338 338 337 337 336 337 339 339 340 340 340 342 340 340 338 338 338 339 338 339 340 340 338 338 337 338 336 336 337 338 337 337 336 336 335 336 335 334 335 334 333 332 333 331 331 332 333
293 293 293 293 292 292 293 293 292 293 294 293 293 291 292 294 294 287 294 299 300 300 298 300 300 302 310 317 315 311 309 311 324 327 330 329 330 329 327 328 328 328 332 332 332 333 335 336 336 337 337 338 337 336 336 336 336 337 339 340 340 340 340 339 338 337 337 337 338 338 339 339 338 338 337 337 337 336 336 337 337 336 336 335 335 335 334 334 334 333 332 331 330 330 328 328 331
294 293 292 292 292 293 292 292 292 292 293 293 293 292 292 292 294 290 292 297 302 297 300 301 300 300 304 306 308 309 313 319 325 328 327 327 327 328 326 326 326 327 331 332 332 332 333 333 335 336 337 338 337 336 336 335 335 337 338 339 340 340 340 339 338 337 337 337 337 337 338 338 339 337 337 337 337 336 336 337 337 336 336 336 335 335 331 332 333 333 331 331 330 329 327 324 326
293 293 289 290 291 292 293 291 293 294 291 294 294 292 289 288 290 293 294 299 300 297 297 300 300 301 303 304 306 311 313 315 317 322 326 329 329 331 329 329 329 329 329 330 331 331 332 332 333 335 336 337 336 336 335 334 335 336 337 338 338 339 339 339 338 337 337 337 337 337 337 337 338 337 337 336 338 337 336 336 337 337 336 336 335 335 332 329 330 331 330 329 328 328 327 324 324
294 292 291 290 286 286 293 293 294 292 293 294 294 282 284 287 290 293 295 297 298 297 296 298 301 301 302 303 304 306 310 314 314 317 322 326 331 333 332 332 332 330 330 329 330 330 332 333 334 334 335 335 336 336 335 334 335 336 338 337 338 337 337 338 338 337 337 337 336 337 337 337 337 337 337 336 337 337 336 336 336 336 336 335 335 334 333 328 327 330 330 327 329 328 327 326 323
288 290 289 286 283 283 291 292 291 291 294 293 293 283 284 288 291 294 297 298 297 295 296 296 298 300 301 303 308 310 312 314 314 315 318 321 325 331 334 333 332 332 333 330 330 330 332 332 334 333 335 334 336 335 336 335 336 336 337 337 337 336 336 337 338 338 337 338 337 336 337 337 337 337 337 336 336 337 336 335 335 336 337 335 334 333 333 330 326 327 330 328 325 325 326 327 325
289 286 279 283 284 282 289 293 292 290 294 293 292 285 283 288 291 294 299 298 297 295 296 296 298 299 302 304 306 307 308 312 314 314 314 314 316 318 323 324 329 331 331 331 331 331 330 330 334 332 333 333 334 335 334 335 335 336 337 340 337 336 336 336 336 337 337 337 337 337 337 337 337 336 336 336 336 336 336 335 335 336 337 336 334 332 332 330 326 325 329 329 325 324 325 325 326
286 285 281 284 284 283 288 292 292 293 294 293 291 282 285 289 293 294 296 297 296 295 295 296 297 300 303 304 305 305 307 309 313 316 316 317 317 317 317 318 319 324 329 331 330 329 329 330 332 332 332 332 334 335 335 336 334 333 334 337 338 337 337 336 336 337 336 336 336 336 337 338 338 337 336 337 336 336 336 336 335 335 336 336 334 332 330 330 327 325 326 329 327 325 324 325 324
282 286 284 286 286 285 283 288 292 293 293 290 292 288 287 288 290 292 295 298 296 295 295 297 298 300 303 304 305 305 307 308 310 313 315 317 318 319 321 325 319 318 321 327 330 329 329 330 331 332 332 332 332 333 332 333 335 337 335 335 336 335 335 337 337 338 336 336 336 336 336 337 338 338 338 337 336 337 337 336 336 336 336 336 335 333 331 330 327 325 325 327 328 326 325 325 323
282 284 285 285 286 287 286 286 289 292 293 290 289 288 287 289 290 291 296 300 297 295 296 297 299 301 302 304 304 305 307 308 310 312 315 316 316 317 317 317 317 320 322 324 327 330 330 331 331 330 331 330 329 331 332 332 333 333 334 335 334 334 335 337 338 338 338 337 336 336 335 336 338 338 339 338 336 337 337 337 336 335 336 335 334 333 333 331 328 325 325 326 329 328 326 325 325
288 288 285 285 284 284 285 289 293 293 288 288 288 288 288 289 290 292 295 298 295 296 298 300 301 301 302 303 304 304 306 307 311 314 315 316 316 317 316 316 316 317 320 321 321 321 326 329 329 327 328 330 328 328 329 330 332 332 330 331 332 333 334 334 337 338 339 338 338 337 336 335 336 338 338 339 338 337 337 337 336 336 335 335 334 332 332 332 329 326 325 325 327 328 328 326 324
291 290 289 286 285 286 288 291 294 294 291 288 287 288 288 290 290 292 294 297 296 297 298 299 300 301 302 302 303 304 305 307 310 313 315 315 316 316 316 315 315 317 319 318 318 318 321 327 328 327 329 327 326 325 326 327 328 328 328 328 330 332 333 334 334 334 335 338 339 339 338 337 336 337 338 338 338 339 338 338 337 336 335 335 334 333 333 332 331 329 328 327 326 326 327 326 324
291 289 287 286 287 285 289 291 294 296 291 288 290 289 288 290 290 292 294 295 296 298 298 299 300 300 301 301 302 303 304 306 309 310 312 313 314 315 315 315 318 315 318 318 317 318 319 321 323 326 324 326 325 326 327 329 330 329 328 328 330 332 332 333 333 334 334 336 338 338 337 337 337 336 337 337 337 337 337 337 337 336 336 335 335 335 334 334 332 330 329 326 328 327 326 327 326
289 289 287 286 288 288 291 291 294 297 293 287 289 289 288 290 293 294 295 295 297 299 300 300 300 300 300 301 301 302 303 303 305 307 309 311 312 313 313 313 314 315 315 316 318 320 320 319 318 321 325 324 328 328 327 328 329 332 332 331 331 331 333 333 334 335 336 336 337 337 337 337 337 337 337 338 336 336 335 336 337 337 336 335 334 334 334 333 332 330 329 328 326 327 326 327 327
288 287 285 284 288 289 283 290 294 294 292 288 290 290 288 292 293 294 297 298 298 300 301 300 301 300 300 301 302 302 301 303 304 306 307 308 309 310 311 311 311 312 312 313 316 318 318 319 319 319 321 323 327 329 332 331 331 332 333 334 336 333 329 330 332 333 334 334 334 336 337 337 337 337 337 337 337 336 336 336 337 337 335 336 335 333 333 333 332 330 330 330 328 326 326 325 328
289 289 287 287 291 290 289 287 293 292 293 294 290 285 284 288 290 291 295 298 299 299 301 301 301 302 302 302 302 303 303 304 304 305 306 306 307 307 308 310 309 309 310 311 313 315 316 316 318 320 319 320 324 329 330 330 330 333 335 336 333 329 329 329 328 329 331 332 333 333 335 337 337 337 337 338 338 337 336 337 337 337 336 336 336 334 333 333 333 332 330 330 329 327 325 324 326
286 290 291 291 291 290 293 291 291 285 284 289 290 280 279 283 288 289 292 294 296 299 299 298 299 300 301 300 300 303 304 305 304 304 305 305 305 306 307 307 308 308 309 311 312 312 311 312 315 318 318 319 320 322 325 329 329 329 330 331 328 325 323 324 325 325 327 329 330 333 335 337 337 337 337 337 338 338 337 337 338 337 336 336 336 335 334 333 333 332 331 330 329 329 327 325 324
287 288 293 291 291 291 290 291 288 281 280 286 292 282 276 283 288 290 292 293 295 297 297 298 299 300 300 300 300 301 302 303 303 304 304 304 304 305 305 306 307 308 308 310 310 310 310 311 312 315 314 316 318 318 321 326 327 328 330 331 332 330 326 326 328 330 330 330 331 330 332 335 337 337 336 337 337 338 337 337 337 337 336 335 336 335 333 333 333 333 333 331 330 330 327 325 325
286 291 293 292 291 290 290 291 289 283 289 290 290 285 281 280 285 289 292 293 294 294 295 296 298 298 299 299 300 300 301 302 302 302 303 303 304 304 304 305 306 307 308 309 308 309 309 310 311 311 312 313 314 315 317 322 325 326 327 329 331 331 331 331 331 331 332 332 330 331 333 333 335 336 336 336 336 337 337 337 337 337 336 335 336 335 334 334 334 334 334 333 331 330 329 327 326
288 292 294 292 292 291 291 290 287 287 288 282 283 290 282 280 286 292 291 291 291 293 294 295 297 298 298 299 299 300 301 302 302 302 302 303 303 304 305 305 306 307 307 307 307 307 308 309 310 310 309 310 311 312 315 316 321 325 325 327 328 330 332 333 334 333 332 332 331 332 332 332 334 335 336 335 335 336 337 337 336 335 335 335 336 336 335 335 334 333 333 332 331 330 330 329 327
291 294 295 295 293 293 293 287 290 285 284 279 282 288 281 278 284 287 291 289 290 291 294 296 297 297 297 298 299 300 301 302 303 302 302 302 303 303 304 305 305 306 307 308 306 306 307 307 308 308 307 308 310 310 311 312 315 320 324 325 326 327 329 331 334 333 331 331 331 331 332 332 333 333 334 335 335 336 336 336 336 335 335 335 336 335 336 335 334 334 333 333 333 331 330 330 328
295 294 293 290 291 289 290 288 285 282 278 281 287 291 285 279 284 287 286 287 291 291 293 296 297 298 298 298 298 299 300 301 301 301 302 302 303 303 303 303 304 305 305 305 306 306 306 307 307 306 307 308 308 308 309 309 311 314 319 323 324 324 326 327 328 330 332 331 330 331 331 332 333 333 333 334 335 335 335 336 336 335 335 335 335 334 334 335 335 335 334 334 333 332 331 329 328
294 291 289 287 285 284 281 280 282 278 274 281 288 289 288 279 281 287 291 293 294 294 293 294 295 297 297 297 298 299 300 300 301 301 300 301 301 302 302 302 303 304 304 304 304 305 306 306 306 305 306 307 307 307 307 307 309 310 313 316 320 324 325 326 327 327 330 331 331 331 332 332 332 332 333 333 333 334 335 335 335 335 335 335 334 335 334 335 336 336 335 334 333 333 333 331 330
292 288 287 283 277 277 276 275 275 275 275 282 289 290 284 281 283 289 293 294 294 295 296 295 296 296 296 297 298 299 299 300 300 300 300 300 300 300 301 302 302 302 302 303 303 304 305 306 305 304 305 305 306 306 306 306 307 308 309 311 314 319 324 325 326 326 328 329 331 331 331 331 331 329 331 332 333 333 334 333 334 334 334 334 335 335 335 335 336 336 335 334 334 333 333 332 331
289 285 282 278 276 273 270 271 275 275 280 285 287 290 281 283 287 293 293 294 296 296 296 297 296 296 295 296 297 298 299 299 300 300 300 299 300 301 301 301 302 301 302 302 303 305 304 305 304 305 304 305 306 306 306 306 307 307 308 309 310 312 317 323 325 326 327 328 330 331 331 331 331 332 332 332 334 334 334 334 334 334 334 334 334 335 335 335 336 335 335 335 334 334 333 332 332
289 291 288 282 277 275 273 276 272 273 277 281 288 283 277 281 282 295 295 296 297 298 298 297 297 297 296 296 297 298 298 298 299 299 300 300 300 300 300 301 300 301 302 302 302 302 302 303 304 304 304 304 305 305 306 306 306 306 307 308 308 310 313 318 323 326 327 326 327 329 330 332 332 333 333 334 334 334 334 334 333 333 333 333 334 334 335 335 336 335 335 335 335 335 334 333 332
289 291 289 284 284 281 278 276 280 278 278 276 279 280 283 283 293 297 298 299 298 300 298 298 297 297 297 296 296 297 297 298 299 299 299 299 300 300 300 300 300 300 301 301 301 302 302 302 303 303 303 304 304 306 305 305 305 306 306 306 307 310 313 316 320 326 328 328 328 328 328 330 332 333 334 334 334 334 334 334 334 333 333 333 333 334 334 334 335 335 335 335 334 336 334 333 333
286 288 282 287 291 287 280 278 283 281 277 275 277 283 285 289 291 294 295 296 296 298 299 299 298 298 297 297 296 296 297 298 298 298 298 299 299 299 299 299 299 301 301 300 301 302 302 302 302 303 303 304 303 304 304 304 305 305 305 306 307 308 309 310 313 317 322 327 329 329 329 330 331 333 333 335 335 334 334 335 334 334 333 332 332 333 334 334 334 334 334 334 334 335 335 334 334
288 283 284 291 294 292 283 276 276 276 274 273 281 279 280 283 278 292 294 293 295 296 299 301 300 300 299 298 298 298 298 298 298 298 299 299 299 300 299 299 299 299 300 300 302 302 303 303 302 302 303 302 303 303 303 303 304 304 305 306 306 307 308 309 312 315 318 322 326 328 331 331 331 333 333 334 335 335 334 335 334 334 334 333 332 333 334 334 334 334 334 334 335 335 335 335 334
289 287 293 287 277 280 282 280 273 271 271 271 276 281 279 281 281 287 289 292 293 296 299 300 300 299 298 297 298 298 298 298 298 297 297 298 298 298 298 298 299 300 303 301 302 303 302 302 303 303 302 302 302 303 303 303 304 304 305 306 306 307 308 310 311 313 314 316 320 325 327 329 331 332 332 333 333 334 334 335 334 333 333 332 333 332 333 333 334 333 333 333 334 334 333 332 332
298 296 293 295 287 283 282 282 279 279 271 273 273 280 276 285 283 289 290 293 293 295 296 297 298 296 295 295 296 296 296 296 297 297 297 298 298 298 298 298 298 299 300 301 301 302 301 301 302 302 303 302 302 301 302 302 303 304 304 305 306 307 308 309 309 310 311 312 315 319 324 327 329 331 332 333 333 333 334 334 334 334 333 333 332 332 332 332 332 332 332 332 332 333 332 331 331
289 288 285 288 288 292 287 285 282 278 274 272 271 272 275 284 290 292 293 294 295 295 295 295 295 295 295 296 296 296 296 296 296 296 297 297 298 297 299 298 299 300 303 301 301 301 301 301 301 301 300 301 301 301 301 301 302 303 304 304 305 305 305 307 307 309 310 312 314 317 322 327 329 329 331 331 332 333 334 334 334 334 334 333 332 332 332 331 330 331 332 332 332 331 331 331 331
287 285 286 289 287 285 279 279 285 285 280 277 274 273 278 285 296 296 294 295 296 297 296 295 295 295 295 296 295 297 296 296 296 296 297 297 297 297 297 300 299 299 299 300 301 300 300 300 301 301 301 300 300 301 301 301 302 303 303 303 304 304 305 306 307 308 309 310 312 315 320 326 327 329 330 330 331 332 333 334 334 333 334 334 333 333 332 331 329 329 330 331 331 331 330 331 331
Wind_Speed
4 1 1 2 2 1 1 0 1 1 0 3 2 1 4 2 3 4 8 6 4 2 3 2 5 5 4 4 11 8 6 10 5 7 4 2 0 14 12 10 12 15 16 14 13 13 15 17 18 17 17 17 16 17 16 17 18 19 19 19 19 19 19 18 17 16 17 17 17 16 16 16 16 16 16 16 16 15 16 17 18 18 18 18 18 17 17 17 17 15 14 13 14 15 15 14 15
2 2 1 2 1 1 0 1 1 2 1 2 5 0 4 6 4 7 8 4 3 2 2 5 2 6 9 11 11 7 4 2 5 2 0 4 8 8 12 14 15 13 14 13 13 13 13 15 19 18 18 18 16 16 16 18 18 18 19 19 19 19 19 19 18 17 16 16 17 16 16 15 15 15 15 15 15 15 15 16 18 18 18 18 18 17 17 17 16 15 13 13 13 14 14 13 13
1 2 4 4 1 1 2 1 1 1 2 5 6 4 3 5 8 11 7 5 6 3 3 7 5 3 4 4 3 4 3 1 1 2 3 8 10 5 10 12 13 14 15 12 12 12 11 15 19 18 18 18 18 17 16 17 18 18 19 18 19 19 19 19 17 17 16 16 16 16 16 15 15 15 15 15 15 15 15 16 17 17 17 17 17 18 17 16 16 14 12 12 12 13 14 12 12
1 1 4 1 2 0 0 1 2 3 3 5 4 5 3 4 9 10 9 5 4 1 2 3 3 3 3 3 3 3 2 1 3 3 3 7 7 11 9 14 13 11 13 12 13 11 11 16 20 19 18 18 18 17 17 18 18 18 18 19 19 19 19 18 17 17 15 15 15 15 15 15 14 14 15 15 14 13 13 14 15 16 16 16 16 16 17 17 16 14 12 11 12 12 13 12 11
1 1 2 2 2 1 1 3 3 4 6 3 4 5 4 6 10 13 13 8 6 5 2 1 2 3 5 4 2 1 2 4 1 2 1 1 10 14 13 13 14 14 13 12 11 11 11 20 20 19 18 18 18 18 17 18 19 18 18 18 18 19 19 18 17 16 15 15 15 14 15 14 14 14 14 15 15 14 13 13 13 15 15 15 15 15 15 15 15 14 11 10 11 12 11 11 11
1 2 1 2 1 1 1 2 2 5 5 4 3 3 6 9 11 12 14 14 3 9 5 6 4 1 5 0 1 2 2 2 2 1 3 5 12 14 15 15 14 12 12 11 10 10 11 20 20 19 18 19 18 17 17 18 18 18 17 18 18 18 18 18 17 16 16 15 14 14 14 13 13 13 13 13 14 14 13 12 12 12 14 14 14 14 14 14 14 13 11 9 9 10 10 10 10
1 2 1 1 3 0 3 2 5 3 5 3 3 4 7 8 8 9 12 11 5 10 1 2 7 5 4 1 2 1 2 3 1 2 3 10 12 14 16 15 15 14 14 11 10 10 13 20 19 19 18 18 18 17 17 17 18 18 17 18 18 18 18 18 18 17 15 15 14 14 13 13 12 12 12 12 13 13 13 12 12 10 11 12 13 13 13 12 13 12 11 9 8 9 9 9 9
0 2 0 2 2 1 2 3 4 1 3 3 3 5 8 10 11 9 14 6 7 0 5 11 6 6 1 2 2 6 8 7 4 2 8 11 12 15 16 15 13 13 12 10 9 9 15 18 18 18 18 17 18 17 17 16 17 17 16 16 17 17 18 18 18 17 16 15 15 14 13 12 12 12 12 11 11 12 13 12 12 11 10 10 11 11 11 11 11 10 9 8 8 7 8 9 8
1 2 1 2 1 1 1 3 4 2 3 4 9 11 13 14 14 10 12 9 6 1 6 9 11 10 4 4 2 4 3 9 9 5 8 11 14 15 11 13 14 11 11 10 9 10 12 16 17 17 17 17 17 17 16 15 16 17 17 16 16 16 17 17 17 17 15 14 14 13 13 13 12 12 11 11 11 11 12 12 12 12 11 10 10 10 11 11 10 9 7 7 7 6 6 7 8
1 1 1 2 3 4 2 4 3 4 5 7 10 12 11 11 12 13 13 12 12 5 8 6 5 9 10 9 1 2 2 7 14 5 2 7 9 10 11 11 12 14 12 9 8 9 8 16 16 16 16 16 16 17 16 15 14 15 16 15 14 14 14 15 15 15 14 14 13 13 13 12 11 11 11 11 11 11 11 11 12 11 11 10 10 9 10 11 10 10 8 7 6 5 5 6 6
1 0 2 0 1 2 4 4 3 4 5 4 5 10 13 13 11 13 12 13 13 7 5 10 6 12 8 3 6 3 2 2 8 7 3 4 5 8 9 9 9 12 13 11 9 8 9 10 17 15 15 15 15 16 16 15 15 14 14 14 14 13 13 14 14 15 14 14 13 13 12 12 12 11 11 11 11 11 11 11 11 11 11 10 10 9 10 10 10 9 9 7 6 5 4 4 5
1 1 1 3 3 3 4 3 3 5 6 5 7 10 8 7 5 7 13 13 12 12 7 6 8 8 5 4 2 1 7 5 8 5 5 3 5 5 8 8 9 8 12 12 11 8 8 9 10 15 17 15 15 16 16 16 15 14 14 13 14 13 13 13 14 14 14 14 13 13 12 11 13 12 11 11 10 12 11 11 11 11 11 10 10 10 10 9 9 10 9 8 7 6 5 4 4
1 0 0 0 2 1 2 4 4 6 4 6 8 8 6 9 11 11 13 13 14 9 1 5 9 4 5 3 2 0 8 5 4 12 10 4 8 8 8 9 10 10 10 12 12 11 10 8 9 9 12 16 15 15 16 16 15 15 14 13 13 13 14 13 14 15 14 14 14 13 13 12 12 13 12 12 11 11 11 10 10 11 11 10 10 10 9 9 9 9 9 9 7 6 6 5 3
3 4 3 2 1 1 1 2 2 3 5 7 6 9 7 4 5 10 10 14 11 6 6 11 8 8 4 3 1 1 4 6 4 7 9 8 9 11 11 9 9 10 9 9 11 11 11 10 8 8 10 10 9 12 13 15 15 15 15 14 13 13 13 13 13 14 14 14 14 14 14 14 14 13 13 12 12 11 9 10 10 10 11 11 10 10 9 9 9 9 9 9 8 7 6 5 4
5 1 1 2 2 1 1 3 3 4 7 6 9 4 8 6 7 8 9 14 10 5 7 7 9 7 5 7 3 5 2 5 6 7 4 9 11 11 12 10 11 10 9 9 9 11 11 11 10 9 9 10 10 7 7 10 14 15 15 15 14 14 13 13 14 13 14 14 15 15 15 14 14 13 13 12 12 11 10 10 10 8 10 10 10 10 9 9 9 9 9 9 9 8 6 6 5
4 1 1 1 3 2 3 2 1 5 7 6 5 7 9 8 5 9 8 11 4 1 2 1 1 5 9 9 6 7 9 5 1 2 10 9 9 11 11 11 10 10 8 9 8 8 10 11 10 10 10 10 9 8 9 9 13 14 14 14 15 14 14 13 13 13 14 14 14 15 14 11 12 9 14 10 12 12 11 9 10 9 9 10 10 10 9 9 9 9 9 9 9 9 7 6 5
1 1 1 1 5 2 3 3 3 7 6 5 8 6 5 7 10 4 9 7 3 2 2 5 4 6 11 6 10 12 6 7 7 7 9 10 8 7 7 9 9 8 7 7 7 7 8 10 10 9 9 9 9 9 8 9 11 15 11 12 14 14 13 13 12 13 13 12 12 12 12 7 4 4 7 5 12 7 10 11 11 10 10 10 11 10 10 9 9 9 8 9 9 9 8 7 5
2 1 2 3 5 3 2 4 3 3 3 6 8 4 5 10 12 7 11 13 8 6 8 4 1 2 12 10 18 15 18 17 16 13 11 11 7 7 6 8 10 10 9 8 7 8 8 8 11 10 10 10 7 5 6 6 7 12 8 7 7 9 10 10 9 5 8 5 11 8 4 4 3 4 3 7 4 6 8 12 11 11 10 10 11 11 10 9 9 8 8 9 9 8 9 4 4
3 2 2 8 4 5 4 5 9 3 6 5 6 3 4 4 4 7 9 14 10 14 12 6 2 7 5 8 10 15 14 3 5 3 10 9 8 10 6 6 8 11 9 9 9 10 8 8 9 10 11 12 11 9 6 6 7 6 8 7 6 9 7 7 5 5 3 4 4 4 3 3 3 3 3 6 5 10 7 12 12 12 11 11 11 11 11 11 10 10 9 9 8 9 5 2 2
3 3 4 7 6 4 5 7 8 4 2 4 6 3 3 4 4 4 4 6 6 7 4 4 6 8 12 10 13 11 3 7 4 8 14 11 9 9 9 9 8 8 9 8 9 7 7 7 7 7 9 12 13 10 8 7 6 6 5 5 5 5 5 5 4 3 3 3 3 3 2 2 3 2 8 11 10 5 6 12 12 11 11 12 12 9 11 11 11 10 9 9 7 4 2 3 3
2 3 4 7 6 4 6 4 4 2 2 2 3 5 4 5 2 3 4 10 5 3 3 3 9 12 11 15 14 12 11 6 13 8 4 10 8 7 8 9 9 9 8 6 5 7 8 8 8 8 8 8 9 8 9 8 7 7 6 6 5 5 4 5 5 3 3 3 3 3 2 2 2 2 2 3 4 3 3 3 6 5 4 4 10 3 4 5 6 5 4 5 3 4 3 3 3
1 5 8 7 0 2 7 6 6 2 2 2 3 6 6 2 1 4 3 3 5 3 5 6 10 9 13 11 11 13 15 17 16 13 10 10 11 10 7 5 5 6 7 8 9 8 8 8 7 6 7 5 7 9 10 10 10 8 8 8 7 5 5 5 5 5 4 3 3 3 3 3 3 3 3 3 3 3 4 4 5 4 3 4 5 4 4 5 4 4 4 4 4 4 4 4 4
5 3 5 7 3 3 3 2 2 3 1 1 1 2 4 2 2 1 1 1 3 1 1 5 6 13 11 10 11 13 14 15 14 11 11 11 11 11 10 9 10 9 8 9 8 6 7 7 8 5 6 4 1 2 8 9 8 7 7 8 8 7 6 6 5 5 5 4 4 4 4 4 4 4 5 4 4 4 5 5 5 4 5 5 4 5 5 5 4 4 5 5 4 5 4 4 4
5 2 1 3 5 3 3 5 5 1 3 2 1 1 3 4 4 1 3 4 6 1 3 2 1 3 12 9 7 5 7 9 11 6 6 10 11 12 13 13 9 8 8 8 7 7 7 8 6 4 4 6 3 4 4 8 10 10 8 7 7 8 7 6 6 6 6 6 5 5 5 4 4 4 5 5 5 4 6 6 5 5 5 5 4 4 5 5 5 4 4 5 6 5 5 5 4
1 1 1 3 1 1 4 3 5 5 6 3 3 3 5 4 3 1 4 6 6 2 6 3 8 5 11 11 11 6 6 8 4 3 2 1 2 4 4 5 4 6 7 6 7 7 6 5 7 7 5 6 6 3 4 4 8 10 11 9 8 9 8 8 7 7 7 7 7 6 6 6 5 4 5 6 4 5 6 6 5 5 5 5 4 5 5 5 5 5 5 6 5 5 5 5 5
2 1 1 2 3 4 5 3 4 5 4 4 7 5 5 6 3 2 6 6 5 2 6 5 9 9 8 8 5 4 3 0 2 2 2 5 6 5 5 5 5 5 4 6 6 6 5 6 7 8 7 6 7 10 5 1 3 11 11 12 11 11 9 8 8 7 6 7 7 7 8 7 7 6 6 6 6 6 6 6 6 6 6 5 5 6 6 5 6 5 5 5 5 5 5 6 5
3 3 2 3 6 5 3 2 5 5 2 3 2 2 3 5 4 4 2 3 5 1 7 10 12 10 9 7 4 3 2 1 6 3 5 4 5 5 3 3 4 4 4 4 4 4 3 3 4 6 6 5 5 8 10 10 6 4 9 10 10 11 11 10 8 7 6 6 6 8 8 8 7 7 6 6 6 6 6 6 7 6 6 6 6 6 5 6 6 6 7 7 6 6 7 5 5
7 3 3 5 7 6 4 6 9 2 3 1 3 4 3 5 1 5 5 4 3 6 11 13 12 6 8 5 4 2 4 7 8 7 6 5 4 4 3 2 2 2 5 5 3 2 2 4 5 5 6 6 4 5 6 8 9 10 9 9 11 11 11 10 11 11 11 9 9 8 8 8 8 8 7 7 7 7 7 7 7 7 7 6 6 6 6 6 6 6 6 6 6 5 6 5 5
5 5 4 5 6 7 7 5 7 2 3 3 1 2 5 3 4 7 5 2 6 10 11 13 10 6 4 4 5 5 6 5 7 6 4 4 3 2 3 1 0 3 1 1 1 2 4 4 4 5 6 5 5 4 6 6 8 8 8 9 9 10 10 9 9 9 10 11 12 13 11 11 9 9 8 8 8 8 8 8 8 8 7 6 6 7 7 6 5 6 6 5 5 5 5 5 4
4 3 1 6 5 6 12 4 9 4 1 4 4 4 9 8 11 9 8 4 9 10 8 8 10 8 5 7 9 9 9 9 9 6 5 5 4 3 3 1 1 1 0 0 0 3 1 1 1 3 4 4 4 3 4 5 6 6 5 5 5 8 9 10 10 9 9 7 8 11 12 13 11 10 9 9 8 8 8 8 9 8 7 7 7 6 7 6 6 6 7 6 6 6 7 6 5
3 4 2 1 3 6 9 1 2 3 3 4 4 3 8 7 11 11 3 5 10 6 6 7 8 8 10 11 13 11 9 7 9 10 9 8 5 5 4 1 2 1 1 2 5 5 3 3 2 2 2 4 4 3 5 6 6 6 6 6 6 8 8 9 10 9 9 9 9 9 10 11 13 13 12 10 9 9 9 9 9 9 7 7 7 6 7 6 7 8 7 7 6 6 7 7 6
2 3 5 4 1 6 9 6 6 4 1 3 2 1 4 7 10 5 1 7 9 5 6 6 7 12 15 13 13 12 8 8 9 8 8 7 6 5 4 2 2 0 2 3 3 1 2 1 1 2 1 3 3 4 3 3 4 4 5 6 6 7 8 8 7 10 10 8 9 9 11 11 11 12 12 11 9 9 9 9 9 7 8 7 7 6 7 7 7 7 8 7 7 8 7 9 6
4 1 4 3 0 5 5 2 3 5 1 1 2 4 2 4 4 4 5 7 6 7 6 6 11 14 14 13 11 10 11 10 9 8 7 7 6 5 4 4 3 1 2 2 2 1 2 1 0 2 1 1 0 0 1 1 3 5 8 8 6 5 6 7 7 6 6 7 8 8 9 11 11 11 12 12 10 10 9 9 8 8 8 8 8 7 7 7 7 7 8 8 7 8 8 9 7
5 1 2 2 3 4 4 8 3 4 2 0 0 1 2 4 5 5 5 6 6 6 5 8 12 10 12 11 11 11 10 10 9 7 6 6 5 5 5 6 6 6 4 2 0 1 2 1 0 1 4 3 3 3 2 3 1 4 6 2 3 7 9 6 5 4 7 8 8 9 10 10 10 11 11 11 10 10 9 9 8 9 8 8 8 8 8 7 7 8 9 8 8 7 8 9 8
2 3 4 6 2 2 5 3 3 3 0 4 3 4 5 6 6 4 2 2 1 5 6 10 11 12 10 10 11 11 10 10 7 5 6 7 7 5 4 5 6 7 6 7 7 6 6 4 3 2 3 1 1 3 4 5 4 0 1 1 2 3 5 8 5 5 7 7 8 9 9 8 8 9 10 10 9 9 8 8 8 8 8 8 8 9 8 8 8 7 9 9 7 8 8 7 8
2 3 5 3 3 5 5 4 5 4 2 4 2 6 6 4 3 3 1 5 4 5 10 12 11 11 10 9 9 11 11 9 5 6 7 6 6 6 5 4 5 4 4 5 6 7 7 6 4 2 1 2 1 1 3 3 0 4 6 3 3 6 5 5 7 6 5 5 7 8 7 7 7 7 8 8 9 9 9 8 8 8 8 8 9 10 9 8 9 8 8 8 8 7 6 6 5
0 1 0 3 2 5 3 4 3 1 1 4 5 5 4 5 5 5 2 2 8 9 10 9 10 11 10 9 9 9 10 9 5 5 5 6 5 4 4 5 5 5 5 6 7 7 7 6 5 3 5 1 2 2 2 3 2 2 2 7 10 9 8 8 6 5 6 6 5 5 6 6 6 7 8 7 8 9 9 9 8 8 8 8 9 11 10 9 8 9 9 8 8 8 7 5 3
3 3 3 7 2 5 4 3 2 0 1 1 2 1 4 7 6 5 3 6 9 12 8 7 7 7 7 10 10 9 6 4 6 6 5 5 6 7 8 9 10 11 9 9 8 6 6 6 5 1 3 6 3 3 3 3 4 5 5 5 5 4 5 7 7 7 8 9 7 6 8 8 7 7 7 7 8 9 9 9 9 9 8 8 8 8 9 9 9 8 7 7 7 10 8 6 5
4 2 3 2 6 4 7 4 3 0 1 4 1 0 2 3 3 3 5 5 6 8 11 9 11 8 7 7 6 6 7 7 7 7 7 8 10 10 9 9 9 8 8 8 7 8 8 8 6 4 2 4 6 4 2 4 5 6 7 6 5 3 3 3 3 3 4 5 7 9 9 9 9 9 8 9 9 9 10 9 9 9 8 8 7 8 7 9 8 10 9 9 7 5 6 4 7
1 6 3 6 4 1 4 4 3 2 1 1 1 2 4 3 3 5 3 7 5 6 10 8 9 10 9 8 7 7 8 12 11 9 9 8 8 8 9 8 7 8 9 9 8 8 8 9 9 8 7 4 5 6 4 6 5 5 6 6 6 5 4 4 8 6 7 7 11 11 8 9 10 10 10 10 10 10 10 9 8 7 8 8 9 8 8 9 8 8 8 9 8 8 6 7 5
1 3 4 4 1 2 2 3 2 3 4 0 2 4 3 5 2 3 4 4 8 5 9 8 5 8 8 6 8 10 12 11 11 10 8 8 8 7 5 5 6 7 7 7 7 7 7 10 9 8 7 8 6 7 7 6 3 4 5 6 1 2 4 5 6 6 8 8 8 9 11 8 9 9 9 11 11 11 10 9 9 8 8 8 8 8 8 9 8 8 9 9 10 10 9 4 4
3 2 3 1 1 2 1 2 3 4 3 3 1 2 2 4 5 2 1 5 5 2 10 6 7 6 6 9 10 10 10 9 11 9 7 6 5 5 6 7 6 5 7 5 6 8 10 10 11 10 8 8 8 7 8 7 5 4 4 6 5 4 4 6 8 10 10 10 13 13 11 9 9 10 10 10 10 9 10 10 9 8 8 7 7 8 7 6 8 9 9 9 9 9 8 6 6
0 1 1 3 2 3 2 3 3 1 0 4 1 5 3 4 1 1 3 5 4 1 4 5 6 6 6 9 10 10 10 9 8 8 7 8 6 7 7 7 6 7 6 6 9 10 11 10 10 9 9 8 9 9 9 8 6 5 6 7 7 7 7 9 10 9 9 10 7 8 10 10 11 11 10 10 10 10 10 10 9 8 7 6 5 6 7 8 8 9 7 8 9 8 5 9 11
2 2 1 3 2 2 1 1 1 4 2 3 2 3 4 2 4 1 4 9 5 5 4 4 4 5 6 8 10 9 9 9 10 9 8 7 7 7 7 5 5 6 6 8 8 8 10 9 9 9 9 9 9 9 10 9 6 6 6 7 7 8 9 9 9 9 8 9 10 13 11 9 10 10 9 11 11 11 10 11 11 10 10 10 9 9 10 8 7 7 8 10 8 8 10 11 10
2 2 1 3 3 2 3 1 3 1 1 7 3 1 1 2 4 1 5 8 4 6 5 4 5 6 8 8 10 10 10 10 9 9 7 7 7 6 5 5 4 5 7 7 6 6 6 7 8 9 10 9 9 11 10 11 9 8 7 6 7 7 9 9 9 9 9 9 10 9 8 9 8 10 11 12 11 11 12 11 10 9 10 11 9 8 9 9 10 9 9 9 9 9 9 9 8
3 2 3 1 2 2 1 1 1 2 1 5 3 1 1 4 5 2 1 4 5 6 5 7 7 8 8 9 10 10 10 9 8 8 7 5 5 4 4 4 5 5 5 6 6 6 7 6 8 9 10 9 9 10 10 11 11 9 7 6 9 9 8 8 7 8 8 8 10 11 9 9 8 8 10 12 12 12 12 12 11 12 12 11 9 10 10 11 11 11 12 11 11 11 8 9 11
2 3 3 4 4 3 2 5 2 3 1 8 3 2 5 3 5 7 6 6 8 5 2 0 3 5 6 8 9 9 9 8 7 6 5 5 4 4 4 5 4 4 4 5 6 7 7 7 7 8 9 9 9 9 9 10 10 9 8 8 8 10 11 10 8 8 7 7 9 10 9 9 9 9 8 9 11 12 13 13 12 13 12 11 11 12 11 10 10 11 11 12 12 12 10 10 10
2 1 1 2 5 6 3 3 4 1 4 5 4 6 7 5 3 5 6 3 9 9 7 6 5 7 8 8 8 9 9 8 7 7 5 4 4 4 4 4 3 3 5 6 5 5 6 7 7 9 10 11 11 11 10 10 9 9 7 9 10 10 10 9 10 10 9 9 8 9 9 8 8 7 8 9 9 10 10 11 12 12 12 12 12 12 12 11 10 10 10 11 11 12 11 11 10
6 4 7 2 3 3 2 4 2 2 2 2 3 4 1 5 6 3 2 5 5 4 8 7 6 6 6 7 8 7 6 6 6 6 5 4 4 4 4 3 3 3 4 4 5 5 5 6 7 9 10 10 11 11 11 11 9 9 9 9 9 10 10 10 10 11 9 9 9 9 8 8 8 8 9 9 10 11 9 10 11 12 11 12 13 13 13 14 12 11 11 12 12 12 12 12 11
5 3 2 3 1 0 2 4 1 3 6 6 4 4 3 3 5 3 4 2 5 7 6 6 5 8 8 7 6 6 5 6 6 5 5 4 4 4 4 3 3 3 3 2 3 4 5 6 7 8 10 10 10 11 12 12 10 9 9 9 9 9 10 10 9 10 10 9 8 10 10 9 10 10 10 11 11 11 10 11 12 12 13 13 13 13 13 13 13 12 12 12 13 12 11 13 14
1 3 1 4 4 2 2 2 2 3 6 5 4 2 3 2 3 5 3 3 4 6 7 4 5 8 7 6 6 6 5 5 5 5 5 4 4 4 4 3 3 1 0 1 2 3 4 5 7 9 10 11 11 12 12 13 12 11 10 10 9 8 9 10 9 8 9 9 8 9 10 9 10 10 10 10 11 12 12 12 12 12 13 13 12 13 12 12 12 11 11 13 12 10 12 12 12
1 3 6 6 1 6 2 4 2 3 3 4 0 2 1 2 2 3 3 5 6 5 3 4 7 7 7 7 7 5 5 5 4 4 4 4 4 5 4 3 3 2 0 0 1 2 4 5 6 8 9 10 11 13 13 13 13 12 11 11 11 10 9 9 9 9 9 9 10 10 11 10 9 9 10 10 11 11 11 12 12 13 13 14 14 14 13 12 12 12 11 11 12 9 11 14 13
2 1 0 3 5 6 0 2 1 1 3 3 1 1 2 4 3 3 5 4 4 4 5 4 4 5 6 6 5 5 5 5 4 5 4 4 4 5 4 4 3 2 1 0 0 1 3 4 6 9 10 10 12 13 14 14 13 12 12 11 10 10 10 10 10 12 12 10 10 10 10 11 10 10 9 10 11 11 11 12 12 13 13 13 13 13 13 13 12 12 11 11 11 11 11 13 12
4 1 4 2 2 4 4 3 2 1 1 4 0 5 2 2 3 3 1 3 1 2 3 4 3 5 5 3 6 7 7 7 6 4 4 5 6 6 4 4 4 3 1 1 0 1 2 3 4 6 10 12 13 13 14 14 14 13 11 12 11 10 10 11 10 10 10 10 10 9 10 10 11 10 10 10 10 12 12 13 12 12 12 12 13 12 12 13 12 11 12 13 14 13 12 11 11
5 3 4 2 1 2 2 3 1 0 2 3 2 1 2 5 4 1 5 5 5 3 2 1 3 5 6 4 2 5 5 4 4 4 4 4 5 5 5 5 3 2 1 1 1 1 1 2 3 4 8 11 13 12 13 13 12 10 9 10 11 11 10 10 9 10 9 10 11 11 10 11 11 11 11 11 11 12 12 12 12 12 11 12 13 13 12 11 12 12 13 12 10 9 9 10 9
3 2 2 1 5 3 1 4 2 3 4 1 4 1 3 6 5 9 11 8 6 5 4 4 4 4 4 4 4 5 4 4 4 4 4 5 6 6 6 5 4 3 1 1 0 0 2 3 3 4 7 10 12 14 13 13 12 11 11 10 10 10 10 10 10 10 10 10 11 11 12 11 12 11 10 11 12 12 13 13 12 12 12 13 12 10 10 11 11 12 12 11 11 11 11 12 13
1 3 2 2 1 2 1 1 2 3 2 3 2 2 5 6 6 8 11 8 7 7 6 5 4 5 6 6 6 5 5 5 4 4 5 5 6 5 4 4 4 2 1 2 0 1 3 3 4 4 8 11 13 13 12 11 11 11 11 11 11 10 12 11 11 11 11 11 10 11 11 11 10 10 10 11 12 13 13 13 14 14 13 13 13 13 12 10 9 11 12 12 12 11 13 13 13
4 5 1 1 1 2 1 7 3 1 1 2 1 6 7 9 3 7 8 8 7 7 7 6 6 7 6 5 4 5 6 6 4 4 5 5 5 4 4 4 2 2 1 0 1 2 3 4 4 5 7 9 12 13 11 12 11 10 10 10 11 11 11 11 11 10 11 12 11 11 11 11 11 11 10 11 12 11 12 13 13 15 14 13 13 14 13 11 12 13 13 11 12 13 14 14 12
Wind_Direction
284 277 172 142 108 88 69 127 20 306 65 253 254 280 254 263 244 307 281 327 317 284 53 54 140 157 143 178 159 196 211 160 205 136 218 235 321 148 148 106 134 143 149 156 163 164 159 159 158 159 158 154 148 149 148 143 138 134 129 127 126 125 125 125 123 123 124 126 127 128 130 131 132 133 132 130 128 127 127 126 125 124 123 123 122 120 119 117 116 115 117 118 116 116 114 116 118
292 348 156 120 54 56 307 172 96 336 14 308 250 263 248 273 305 259 267 277 240 319 101 92 51 94 99 125 126 106 19 277 174 200 227 89 101 132 140 140 147 139 150 156 159 161 160 158 158 159 157 153 148 148 149 145 141 137 134 131 129 128 128 128 128 127 129 130 132 132 133 134 134 133 133 131 129 131 130 129 127 126 126 128 128 127 122 120 119 121 125 126 121 118 117 117 118
309 30 30 72 23 115 285 46 259 196 180 249 275 214 294 288 262 268 264 254 277 1 111 127 118 59 87 92 87 116 246 306 257 208 125 129 102 169 147 143 143 143 147 155 159 160 159 158 159 158 156 153 150 150 151 147 144 141 137 133 131 131 131 131 130 131 132 134 135 136 136 136 136 135 133 132 133 134 133 131 129 128 129 129 131 130 129 126 124 126 130 130 125 119 120 122 123
157 86 105 72 337 36 62 28 132 157 217 208 263 275 248 269 281 277 277 267 263 97 211 331 46 294 121 63 43 31 87 186 232 167 141 161 171 158 151 138 140 135 146 153 159 160 161 158 157 157 156 152 150 150 150 150 146 144 139 135 134 134 134 133 133 134 136 137 138 138 138 138 138 137 135 135 134 133 132 131 131 130 129 130 131 131 129 129 129 131 135 134 128 122 123 126 126
78 194 112 87 117 293 126 206 179 144 224 206 224 267 272 270 282 289 285 283 303 345 84 268 83 34 67 79 10 91 280 300 286 258 81 164 148 149 136 137 143 143 148 153 155 155 161 158 155 157 156 153 150 150 150 150 149 146 142 138 136 135 136 136 136 137 139 140 140 139 139 139 140 140 137 135 134 134 133 133 132 131 130 130 131 131 131 131 131 133 136 135 128 124 125 124 122
86 94 314 99 158 218 24 302 275 207 220 180 231 255 263 261 265 272 288 296 309 87 117 101 152 188 50 357 60 113 311 350 261 339 137 172 146 136 134 142 140 143 145 149 153 154 159 159 156 156 156 154 152 149 149 151 151 148 144 141 139 139 138 138 138 139 141 143 142 142 140 141 142 142 139 136 136 137 136 134 133 133 133 134 134 133 134 132 132 132 134 134 128 127 126 123 120
347 39 27 25 321 109 176 193 249 243 272 210 233 255 264 279 278 291 289 305 305 110 241 137 125 95 91 290 71 131 221 241 258 209 201 148 133 132 134 145 147 150 151 154 152 155 159 158 157 156 156 155 152 149 149 151 151 149 146 145 143 142 142 142 141 143 145 146 147 145 144 143 145 144 141 140 139 140 141 139 137 136 136 136 137 138 137 136 135 133 134 133 131 130 127 122 115
171 100 243 117 256 111 260 224 241 197 272 234 271 281 280 277 280 286 283 273 287 216 189 146 156 96 267 346 102 312 347 348 322 125 136 138 138 136 142 147 145 149 149 143 150 150 156 155 156 156 155 154 152 149 148 149 150 150 148 147 146 146 146 145 145 146 148 149 149 149 147 146 148 148 145 142 142 143 143 143 139 137 137 140 140 141 140 136 135 132 131 133 135 138 130 121 113
359 97 311 78 287 318 327 234 248 245 277 294 278 271 272 271 273 261 263 274 291 158 193 139 128 111 249 46 69 278 312 343 344 101 141 139 143 145 145 147 146 146 145 148 147 148 150 153 154 154 154 154 150 147 148 149 149 151 151 151 150 149 149 147 147 148 149 150 151 151 150 150 150 151 149 147 145 146 147 146 146 145 144 144 146 142 139 136 131 131 136 135 140 140 129 117 108
351 121 277 170 141 248 251 293 273 242 233 239 248 256 256 259 261 273 277 276 260 233 191 156 163 132 157 130 175 352 283 334 357 33 66 138 138 139 145 148 147 143 141 138 139 137 140 150 149 151 152 153 152 148 147 148 149 152 153 154 152 153 150 150 149 149 150 152 152 152 153 153 155 151 151 151 152 151 151 151 151 148 148 149 148 145 137 131 136 138 142 146 144 143 131 117 109
305 347 164 331 287 246 257 280 280 302 289 278 264 252 255 260 266 267 261 262 260 233 158 158 96 136 124 197 177 225 119 278 114 315 13 107 138 139 134 133 138 137 135 132 129 129 138 143 149 150 152 152 152 150 149 150 152 152 153 155 155 155 153 151 151 151 153 153 154 155 156 158 156 154 154 154 156 155 154 154 155 153 151 153 150 144 138 140 141 142 146 152 151 149 141 124 109
11 272 24 186 207 196 231 230 257 275 282 292 289 281 268 264 266 266 269 263 261 252 203 177 171 155 121 163 214 192 134 233 135 99 304 93 91 77 112 124 122 119 125 126 122 124 129 138 148 156 154 155 153 153 152 151 152 155 156 156 158 159 158 155 155 155 156 157 157 158 160 161 159 158 157 157 158 160 160 159 159 158 158 156 154 151 147 145 146 147 150 157 161 158 156 141 124
165 213 41 33 233 176 231 265 263 267 285 274 264 267 271 287 280 272 267 265 258 213 44 50 114 80 140 158 315 245 132 216 183 145 174 143 108 95 104 112 113 118 126 127 123 127 128 130 145 156 157 157 156 154 154 154 153 155 156 158 160 162 162 160 159 160 160 162 160 161 163 164 164 163 161 161 162 163 166 166 164 165 163 161 160 158 154 153 154 154 155 160 166 169 163 158 149
156 179 123 251 270 226 242 234 270 261 275 271 260 272 289 276 273 294 294 289 263 188 160 126 108 109 79 73 359 302 191 175 217 146 137 133 120 119 116 111 109 110 112 123 129 132 129 132 139 149 156 157 160 155 155 156 156 157 158 159 162 165 165 164 163 164 165 165 165 164 165 167 168 167 166 165 165 167 168 171 171 170 170 168 165 163 165 164 162 160 159 163 170 177 172 165 167
208 174 115 165 264 358 250 290 271 260 274 271 278 303 320 315 322 323 321 327 291 127 161 112 146 113 203 154 240 208 5 160 140 87 88 123 118 115 116 114 106 101 106 115 124 131 135 138 141 145 150 157 157 154 154 159 159 160 159 160 163 165 167 167 167 167 168 168 168 168 169 170 172 172 171 170 169 168 170 175 178 179 176 174 172 169 172 175 170 164 163 167 172 179 182 175 176
190 105 140 220 259 224 281 281 274 309 281 270 286 1 325 333 347 329 333 313 255 302 207 139 245 152 174 155 185 158 122 75 192 148 136 113 110 113 110 104 101 104 110 120 129 136 142 145 147 149 152 153 157 157 157 159 163 163 163 162 163 164 167 170 170 170 170 171 172 172 174 175 175 176 175 175 174 175 174 176 183 186 184 181 180 178 177 182 180 172 168 169 175 177 187 187 186
73 94 304 332 283 234 239 250 247 256 256 266 306 3 346 339 339 311 323 331 331 320 4 129 133 108 132 172 131 131 115 161 164 181 128 119 115 88 95 110 112 110 119 124 132 139 143 147 149 145 148 151 153 155 157 159 165 161 162 163 164 165 167 172 174 173 172 174 175 177 178 174 174 173 180 178 179 181 182 181 187 192 192 189 187 182 183 187 187 181 174 175 177 179 183 195 197
84 206 152 276 207 220 224 233 220 235 256 293 327 312 13 3 345 322 353 356 343 357 353 40 59 155 163 176 142 165 166 173 191 174 145 123 117 118 126 131 127 131 136 142 149 151 152 158 152 153 149 152 146 148 158 157 165 160 154 159 160 164 168 172 175 171 172 168 178 179 172 171 174 178 177 185 182 185 191 190 191 195 197 197 191 188 186 192 195 187 184 183 180 180 183 196 212
162 185 137 232 213 228 205 238 256 298 280 303 289 300 39 353 343 334 18 343 21 22 18 321 31 28 23 83 73 52 13 341 211 142 109 105 130 136 145 131 129 134 145 153 160 161 163 159 160 162 159 154 151 156 159 157 154 144 151 154 159 163 163 167 160 173 164 166 171 177 163 176 175 183 178 188 188 190 194 196 196 199 201 203 197 192 190 195 198 194 193 190 188 184 182 206 227
235 151 221 238 209 229 228 231 256 257 261 272 319 329 51 314 12 314 28 336 42 45 335 331 51 67 71 46 81 97 121 260 212 137 134 139 138 134 138 134 133 144 151 159 160 160 157 157 167 168 168 161 157 160 155 156 137 137 133 135 138 138 146 156 161 166 162 166 166 160 151 166 180 185 197 198 195 198 198 202 201 203 206 207 203 200 197 198 200 198 199 197 192 190 178 208 220
258 140 204 230 219 234 265 262 231 238 191 297 314 313 26 335 320 32 342 359 2 53 335 237 123 135 137 133 141 139 104 23 338 336 87 121 127 136 140 141 151 156 156 141 149 168 173 174 171 173 176 170 157 153 151 149 133 133 130 130 135 132 132 139 150 160 168 180 168 153 147 163 174 196 223 205 199 202 211 224 205 202 204 214 207 193 199 204 196 197 204 202 191 198 198 217 215
133 214 227 230 341 206 263 259 284 262 228 66 336 360 307 262 48 359 45 344 297 20 315 358 152 160 150 152 148 142 159 162 179 212 162 143 144 151 139 112 103 131 149 153 176 183 184 178 176 177 168 177 180 160 156 153 147 146 146 147 144 146 141 138 144 159 164 177 161 166 155 172 172 206 218 227 209 205 213 233 211 197 196 209 212 191 207 206 195 199 198 204 204 205 210 218 222
232 298 235 236 232 241 241 258 237 254 272 301 2 253 297 70 316 263 17 253 259 141 296 131 262 163 173 140 155 165 163 178 177 189 159 154 156 152 154 154 148 157 169 173 174 181 181 181 183 171 164 134 244 193 153 152 150 146 146 151 144 147 153 158 167 164 169 172 171 177 183 185 183 207 215 218 216 198 213 221 214 200 199 204 207 187 206 210 199 198 203 209 207 210 215 226 228
155 227 263 243 202 245 310 315 319 246 259 281 219 358 332 330 353 251 309 261 266 255 50 355 284 164 111 117 340 167 156 168 188 183 181 166 161 160 163 165 162 150 159 175 177 183 185 187 175 150 157 129 145 174 177 155 148 141 147 151 148 154 154 165 173 173 172 176 173 181 184 186 188 202 217 217 217 204 212 213 211 208 206 214 206 193 203 213 208 206 205 215 213 216 218 222 228
115 322 267 282 330 257 306 305 322 320 307 242 263 319 280 270 254 347 273 278 284 285 89 56 51 58 136 140 159 167 173 182 141 141 160 218 146 127 87 69 115 143 153 175 182 188 192 172 166 163 157 138 110 121 155 175 157 149 149 153 156 169 169 173 175 175 176 176 178 181 183 192 195 199 217 221 215 217 213 213 206 210 209 215 204 207 205 211 214 206 208 213 216 220 221 227 222
343 270 304 335 317 312 300 316 293 301 292 342 325 299 282 272 309 258 246 269 273 290 71 85 62 53 52 79 112 136 131 280 18 34 62 46 51 62 62 101 122 152 178 173 177 199 178 169 169 166 156 154 142 132 123 39 219 162 159 163 165 170 177 178 172 179 188 179 179 180 186 192 199 202 210 217 214 221 215 213 212 213 212 212 208 212 209 210 214 211 217 221 219 223 223 226 213
260 289 10 345 300 332 309 283 289 292 257 274 233 277 277 297 41 284 300 261 281 85 79 80 71 64 80 104 81 30 17 103 122 144 93 67 70 91 71 93 134 146 142 173 199 200 178 159 161 160 159 160 160 149 154 159 180 233 165 166 168 174 172 171 176 183 182 191 187 182 188 194 198 206 206 213 215 215 214 214 217 215 219 215 209 220 213 216 217 210 208 210 214 216 225 222 211
330 332 353 334 321 316 293 308 295 309 310 231 182 271 291 308 216 243 253 291 332 62 63 73 80 84 99 93 100 150 98 127 131 118 131 130 134 130 113 125 111 118 162 185 196 175 163 174 161 165 172 174 165 149 156 164 177 181 178 172 179 183 173 175 179 183 185 187 187 188 190 195 199 206 207 214 215 212 214 214 217 216 221 217 210 217 214 221 221 222 219 218 224 220 232 227 218
302 303 327 299 345 323 299 291 271 265 265 261 150 311 318 336 254 269 292 252 71 76 72 88 89 83 80 90 84 77 98 104 93 100 124 95 70 60 109 59 311 185 212 87 201 195 204 186 163 174 179 181 174 166 170 182 187 191 185 188 184 175 171 171 182 193 198 189 186 187 188 192 197 203 207 212 216 215 213 214 217 219 221 217 213 217 215 219 229 234 235 228 231 237 242 238 228
324 356 249 318 7 325 279 278 259 226 255 278 128 309 275 279 265 263 270 123 87 73 79 84 89 87 73 64 65 46 23 59 62 65 70 75 96 96 91 117 139 282 327 47 219 241 267 251 190 159 172 185 186 170 183 188 199 207 217 218 197 180 177 171 186 188 191 201 203 197 190 188 193 198 203 209 213 217 214 214 217 219 218 217 214 214 217 213 221 227 232 223 228 224 235 232 207
340 290 48 257 22 283 285 249 253 136 225 150 106 188 288 292 296 293 308 105 92 89 76 83 99 97 77 64 79 75 58 56 77 75 73 69 66 58 89 96 133 206 211 208 208 208 194 192 178 185 175 165 185 191 199 205 198 204 210 212 206 196 197 186 183 189 187 189 188 199 206 203 195 193 197 202 209 213 215 216 217 219 216 213 213 213 214 218 216 222 222 224 232 232 234 239 199
319 1 309 315 182 282 290 303 147 155 248 132 97 338 255 282 282 326 161 97 91 80 91 87 73 75 82 83 84 82 70 56 57 58 57 56 60 64 55 19 358 234 217 246 260 212 230 221 144 150 161 156 183 193 242 287 297 259 221 216 223 216 202 201 197 194 193 187 189 193 197 204 208 201 194 196 205 209 213 216 216 213 215 213 215 213 212 219 219 224 227 218 221 231 233 245 214
355 148 273 284 239 252 338 313 241 188 138 44 141 224 316 325 331 339 331 107 99 108 92 88 82 90 91 92 86 85 79 63 58 61 58 61 50 65 71 78 68 57 232 225 239 276 265 270 85 101 109 87 70 96 150 87 66 344 333 330 305 268 234 217 210 207 201 193 198 201 201 201 205 208 203 195 198 205 211 215 213 210 210 213 214 213 213 217 213 220 230 226 215 225 226 239 240
300 26 220 230 290 318 307 300 330 219 146 278 356 163 222 243 274 317 8 354 115 109 95 74 73 78 88 88 84 80 78 75 71 73 85 89 77 62 50 41 28 29 43 43 143 92 327 11 79 124 100 100 124 117 99 83 94 187 195 218 315 317 293 260 216 218 216 210 203 206 208 207 204 206 209 207 199 199 206 209 210 209 208 212 215 215 218 214 216 213 226 228 220 220 225 229 238
245 329 354 327 321 216 247 318 271 334 232 207 218 226 255 267 284 285 297 87 141 129 104 84 85 83 84 88 89 87 85 83 84 86 78 77 79 90 78 56 41 31 27 32 38 41 41 40 48 31 94 125 136 161 148 145 153 151 44 32 359 314 307 293 276 224 226 228 217 215 209 215 217 211 208 209 212 200 201 206 209 208 207 212 214 216 221 220 219 216 221 229 228 222 217 219 225
233 180 196 191 262 299 294 264 283 226 12 302 196 222 254 282 286 289 263 122 116 99 93 95 92 99 99 100 99 100 102 100 108 95 88 79 76 72 75 77 73 61 30 21 28 34 36 44 48 18 181 195 224 32 28 344 330 161 149 111 247 224 228 287 311 286 261 237 231 224 217 213 220 228 221 210 211 208 201 201 207 205 205 209 215 216 215 218 221 220 226 225 226 235 235 221 199
266 20 263 251 239 279 273 259 263 126 188 242 222 254 263 275 264 274 142 84 49 73 102 108 118 116 118 113 104 103 105 119 132 106 104 103 92 83 70 69 73 68 43 30 25 23 35 37 43 2 306 241 210 246 189 194 212 259 217 202 217 210 200 192 212 251 287 279 255 226 216 221 218 229 236 224 213 208 206 197 193 202 200 204 214 220 213 208 213 215 217 216 218 223 235 227 214
331 310 319 296 312 277 257 261 302 255 96 292 357 12 299 285 296 296 49 107 113 119 111 113 102 98 101 113 114 111 123 119 109 87 61 61 49 40 37 33 31 32 13 18 16 9 20 24 28 355 282 312 282 223 200 208 203 207 218 222 229 225 201 197 205 204 214 233 240 224 212 207 207 213 227 236 235 225 219 208 198 198 192 200 209 215 215 209 203 209 209 223 221 215 225 201 202
335 287 266 353 286 249 278 285 288 169 102 265 195 157 263 291 335 16 99 123 151 136 127 135 119 110 103 97 103 107 95 81 68 61 46 40 38 33 36 33 28 26 20 17 5 10 1 1 357 354 293 275 288 270 211 217 209 219 227 242 208 210 200 176 199 249 282 257 244 224 210 206 204 207 210 221 231 232 232 225 215 198 185 188 199 210 209 212 203 204 202 210 221 237 230 212 195
312 314 328 248 241 346 297 302 314 330 108 220 260 306 287 311 305 45 85 115 137 134 124 124 122 117 112 114 122 111 87 80 72 68 63 54 50 45 39 35 24 26 20 11 5 2 2 5 357 346 336 307 286 285 255 244 218 225 238 249 246 196 136 195 221 199 202 211 239 247 233 215 205 207 207 211 221 228 227 233 233 209 193 180 192 205 202 209 204 206 205 213 204 220 220 232 208
276 212 252 270 270 231 217 251 307 334 328 86 42 29 343 346 20 47 70 45 104 86 92 94 94 112 120 116 90 89 101 101 92 80 71 61 57 51 52 38 35 35 21 13 3 4 8 3 348 347 338 336 320 304 292 279 259 245 243 253 358 74 108 202 231 226 222 217 221 239 244 224 215 212 211 213 218 226 227 231 233 226 205 190 187 199 205 206 202 203 202 207 205 214 224 224 229
315 250 180 189 191 85 275 334 2 17 334 318 108 19 305 299 305 205 325 89 87 105 111 119 129 130 119 103 99 96 89 92 100 97 93 89 80 64 43 37 38 32 25 5 4 10 13 2 352 340 343 339 334 328 317 300 270 234 234 246 229 197 160 227 226 223 218 217 222 223 222 222 217 218 215 214 218 221 224 228 232 233 224 206 194 198 199 195 207 208 206 205 216 222 218 212 234
116 257 85 79 75 27 14 5 62 7 166 282 97 203 264 321 257 268 124 106 83 20 103 136 123 119 114 103 106 108 108 99 90 91 83 70 60 57 43 35 27 27 14 10 14 9 4 3 354 346 344 339 336 334 337 334 299 261 241 236 240 237 214 214 230 227 226 234 234 241 234 221 214 215 217 214 217 217 218 224 225 226 222 216 205 193 198 205 205 208 204 212 213 209 204 221 221
265 234 139 79 32 345 280 301 149 221 242 299 14 121 196 279 289 262 124 110 126 120 142 135 135 119 102 105 108 109 105 103 93 83 76 72 63 58 48 29 27 22 12 18 16 6 358 352 348 347 342 340 337 334 337 335 308 285 268 250 241 245 242 241 233 233 226 225 215 228 229 223 216 215 213 218 218 214 212 216 216 208 200 203 198 202 209 203 199 205 205 213 215 204 204 219 227
220 249 2 352 308 248 288 295 266 250 320 284 324 39 44 254 264 36 128 113 152 160 161 154 134 119 117 111 103 100 99 101 102 97 89 84 78 70 62 41 21 29 23 21 12 357 346 341 344 343 342 340 336 340 338 333 323 298 275 269 259 249 248 247 249 235 225 225 235 233 230 238 227 216 213 215 216 216 217 214 213 214 214 215 207 207 204 194 197 198 200 205 211 217 211 220 223
274 258 335 39 73 64 26 130 113 342 54 275 258 153 185 280 273 324 277 136 197 195 178 160 152 138 128 107 105 105 102 99 99 103 103 99 96 87 79 56 39 26 19 13 4 355 345 340 341 344 338 337 333 336 340 336 334 328 301 271 263 265 260 258 248 251 238 222 228 235 228 230 228 224 222 219 214 214 216 213 209 213 217 215 208 217 209 198 196 197 200 203 206 215 212 211 220
238 348 291 1 30 19 23 55 84 58 319 253 216 138 135 253 253 213 185 207 184 189 223 129 130 105 96 112 116 115 109 109 107 106 103 105 99 99 78 67 49 17 9 19 3 346 337 338 335 338 329 327 331 333 336 332 331 334 325 303 278 269 266 260 259 253 249 236 228 228 227 232 228 227 226 228 225 219 217 212 208 210 214 212 211 216 220 213 202 199 201 199 204 209 212 213 221
40 18 144 36 334 9 32 341 36 115 273 265 228 175 164 190 289 263 235 247 163 163 156 154 138 130 131 130 123 124 127 128 127 119 124 114 88 69 70 71 64 18 19 13 351 338 337 330 332 333 329 329 328 330 332 328 326 325 327 322 307 286 272 269 262 256 247 242 237 240 230 232 235 228 232 231 230 228 222 219 214 212 211 208 212 216 217 216 214 206 200 199 204 207 211 213 218
65 66 42 62 273 31 310 17 339 194 198 256 201 151 46 252 222 237 253 177 157 146 149 158 149 131 134 127 129 131 132 132 125 115 107 112 124 129 103 105 68 32 26 354 340 335 333 329 329 330 325 325 323 324 324 323 322 321 321 318 316 308 293 274 265 261 255 244 238 243 242 238 235 227 230 232 235 227 221 223 220 217 216 214 212 211 216 216 213 207 204 202 201 203 206 210 218
64 76 119 78 21 26 256 269 214 310 290 267 217 227 231 260 295 276 209 165 147 143 153 154 143 128 134 133 129 124 114 111 118 129 138 148 155 149 140 136 124 71 18 328 337 342 330 329 326 326 321 321 319 320 320 319 318 316 314 313 311 311 307 295 277 263 258 249 241 241 241 237 239 238 233 225 228 227 219 219 220 223 221 218 216 214 215 216 213 207 203 204 205 206 203 208 218
181 164 147 182 142 156 245 226 236 231 231 279 287 142 240 141 247 316 318 130 131 148 145 133 123 127 135 121 114 114 120 128 137 136 153 162 169 151 143 139 122 132 263 324 346 327 338 329 325 324 322 323 323 319 317 316 314 314 313 309 306 304 302 300 292 273 262 257 247 244 243 240 241 239 235 234 230 226 225 223 219 220 223 223 217 217 218 217 214 210 206 207 207 205 205 208 216
275 131 82 73 220 142 172 201 190 257 310 337 322 182 175 154 230 274 357 49 33 30 23 116 111 116 114 116 130 139 131 127 134 154 182 177 150 134 141 154 170 179 209 270 322 338 339 326 320 320 319 320 322 321 316 311 308 307 306 307 305 303 301 302 301 294 276 258 253 243 243 240 240 239 237 235 230 222 223 225 221 219 220 221 218 214 214 216 214 212 211 208 209 203 207 209 215
267 37 240 201 177 115 177 349 280 77 46 259 204 356 316 309 343 328 4 42 15 35 61 47 49 76 95 119 142 144 150 154 175 178 179 158 141 149 163 168 180 195 207 260 255 314 333 324 325 324 323 322 320 318 312 309 304 302 302 303 303 303 303 304 301 295 290 279 261 250 243 241 238 238 238 234 237 228 224 224 223 220 219 220 221 217 210 209 213 215 214 209 212 207 208 212 211
79 129 243 268 92 131 132 211 329 39 166 259 337 182 255 125 235 309 4 70 348 26 76 76 95 104 74 125 143 160 163 178 183 183 182 169 162 167 175 182 173 168 200 220 8 337 338 317 314 323 319 316 315 313 310 307 304 300 298 300 301 299 300 298 294 297 303 297 287 269 257 249 244 238 236 237 234 233 227 224 225 222 220 219 221 218 211 206 202 206 208 212 211 206 207 212 210
151 193 199 94 294 341 317 89 328 314 293 273 321 252 248 196 236 268 243 198 191 210 172 95 116 130 167 209 182 137 160 157 169 186 180 162 169 177 184 185 177 181 211 193 151 338 298 286 283 308 306 307 308 309 307 304 301 296 293 295 298 301 298 296 299 300 299 296 293 285 264 252 250 245 242 238 237 236 232 229 224 224 220 223 222 220 212 205 199 202 210 216 215 202 202 213 212
11 63 29 250 112 176 134 195 181 132 260 44 292 44 234 209 220 197 212 206 185 181 184 201 182 190 186 183 189 166 174 173 189 201 190 182 182 185 185 165 165 182 171 169 178 255 289 280 290 303 301 302 306 307 307 304 301 296 292 292 293 295 299 300 299 300 297 293 291 287 279 263 250 244 239 236 239 238 236 234 229 226 219 216 218 215 210 208 203 207 206 209 210 203 202 210 217
328 34 338 355 294 214 109 342 146 178 196 194 202 287 275 259 214 186 208 200 198 177 184 199 186 190 203 190 190 177 183 186 210 195 197 188 185 196 176 155 164 172 153 167 152 284 278 279 299 305 305 308 307 306 305 303 302 297 294 295 298 301 299 297 295 293 293 293 289 284 277 263 253 245 240 238 239 239 239 235 233 228 225 220 216 215 213 206 213 218 212 210 214 209 210 215 218
174 151 147 196 49 4 358 274 342 70 101 236 145 258 265 268 199 195 195 198 192 201 185 197 190 198 200 207 208 170 182 205 207 208 194 192 169 189 128 155 158 146 145 171 255 270 271 299 296 299 300 305 310 310 309 304 302 298 297 300 300 298 294 292 289 293 293 292 291 288 282 269 253 247 239 238 236 237 237 235 233 234 228 223 216 212 210 205 206 222 219 210 215 212 215 219 216